{"data":{"norad_id":68902,"epoch":"2026-09-19T23:31:08.207904Z","epoch_age_seconds":60297,"freshness":"FRESH","line1":"1 68902U 26097H   26262.97995611  .00020799  00000+0  64521-3 0  9991","line2":"2 68902  97.2869  97.1505 0002882  73.2158 286.9400 15.33422700 22012","mean_motion":15.334227,"eccentricity":0.0002882,"inclination_deg":97.2869,"raan_deg":97.1505,"arg_perigee_deg":73.2158,"mean_anomaly_deg":286.94,"bstar":0.00064521,"rev_number":2201,"period_min":93.907570300088,"perigee_km":463.63715664449,"apogee_km":467.58189214115,"semimajor_km":6843.7465243928,"source":"CELESTRAK","updated_at":"2026-09-20T09:00:44.047168Z"}}